スペースウォッチ彗星

366P/Spacewatch (2018)

English version
Home page
Updated on May 19, 2019

---------------------------------------------------------------------

・ プロフィール

符号 366P/2018 F2
検出日 2018年3月17日
検出光度 20.2等
検出者 Erwin Schwab (Egelsbach, Germany)

・ 写真集

・ 軌道要素

Epoch 2018 July 21.0 TT = JDT 2458320.5
T 2018 July 21.83450 TT                                 MPCW
q   2.2777947            (2000.0)            P               Q
n   0.15056150     Peri.  153.33245     -0.71319136     +0.68572210
a   3.4993987      Node    70.75761     -0.66748766     -0.60100937
e   0.3490897      Incl.    8.85947     -0.21405213     -0.41057634
P   6.55
From 72 observations 2005 Apr. 4-2018 Apr. 20, mean residual 0".5.

・ 光度変化

        m1 = 15.2 + 5 logΔ + 10.0 log r

---------------------------------------------------------------------

軌道要素はM.P.E.C. 2019-J142に掲載されたものです。
光度グラフはComet for Windowsで作成したものです。

---------------------------------------------------------------------

Copyright(C) Seiichi Yoshida (comet@aerith.net). All rights reserved.